User: anonymous   Login
Location: Stull Observatory
(42.2506°N, 77.7903°W)
Time: 05:45:17
(UTC-04:00)
Language:

Abrixas rocket - Orbit

View from above orbital plane
View from above orbital plane
View from above satellite
View from above satellite

Ground track
Ground track

The orbit data is extracted from the following two-line orbital elements,

1 25723U 99022C   15212.46461384  .00009409  00000-0  22746-3 0  9994
2 25723 048.4187 198.1193 0014482 347.9650 153.2394 15.41644856900075
Epoch (UTC): 31 July 2015 11:09:02
Eccentricity: 0.0014482
inclination: 48.4187°
perigee height: 431 km
apogee height: 451 km
right ascension of ascending node: 198.1193°
argument of perigee: 347.9650°
revolutions per day: 15.41644856
mean anomaly at epoch: 153.2394°
orbit number at epoch: 90007

The dashed part of the orbit path shows where the satellite is in the earth's shadow,  

DLR